Flag for Japan Weather past 2 weeks in Hamamatsu, Japan

Now
46 °F

Cool.


Feels Like: 43 °F
Forecast: 30 / 54 °F
Wind: 6 mph from North

Location: Omaezaki

Current Time: Mar 3, 2015 at 8:36:26 AM

Latest Report: Mar 3, 2015 at 7:00 AM


Visibility: 13 mi

Pressure: 30.10 "Hg

Humidity: 75%

Dew point: 38 °F

Location of HamamatsuLocation

Historic Weather in Hamamatsu — Graph

°F

Hamamatsu temperature yesterday

Maximum temperature yesterday: 54 °F (at 3:00 PM)
Minimum temperature yesterday: 42 °F (at 11:00 PM)
Average temperature yesterday: 48 °F

Past Weeks' High & Low Weather Summary

 TemperatureHumidityPressure
High64 °F (Feb 23, 3:00 PM)100% (Feb 22, 6:00 PM)30.35 "Hg (Feb 22, 6:00 PM)
Low36 °F (Feb 28, 5:00 AM)31% (Feb 27, 1:00 PM)29.44 "Hg (Mar 1, 7:00 PM)
Average49 °F67%29.98 "Hg
* Reported Feb 16 7:00 AM — Mar 3 7:00 AM, Hamamatsu, Weather by CustomWeather, © 2015

Note: Actual official high and low records may vary slightly from our data, if they occured in-between our weather recording intervals... More about our weather records

Advertising

Hamamatsu weather history for previous 24 hours

 ConditionsComfort  
Time TempWeatherWind HumidityBarometerVisibility
7:00 AM
Tue, Mar 3
46 °FCool.6 mph75%30.10 "Hg12 mi
5:00 AM40 °FQuite cool.3 mph86%30.07 "Hg12 mi
3:00 AM42 °FQuite cool.8 mph66%30.07 "Hg12 mi
2:00 AM41 °FQuite cool.8 mph71%30.09 "Hg12 mi
1:00 AM44 °FQuite cool.5 mph66%30.06 "Hg12 mi
12:00 AM41 °FQuite cool.7 mph61%30.05 "Hg12 mi
11:00 PM
Mon, Mar 2
42 °FQuite cool.9 mph56%30.04 "Hg12 mi
10:00 PM42 °FQuite cool.7 mph54%30.04 "Hg12 mi
9:00 PM44 °FQuite cool.8 mph50%30.01 "Hg12 mi
8:00 PM46 °FCool.10 mph46%29.99 "Hg12 mi
7:00 PM48 °FCool.15 mph39%29.97 "Hg12 mi
6:00 PM50 °FCool.16 mph37%29.94 "Hg12 mi
5:00 PM52 °FCool.20 mph38%29.90 "Hg12 mi
4:00 PM54 °FCool.20 mph37%29.89 "Hg12 mi
3:00 PM54 °FCool.24 mph36%29.89 "Hg12 mi
2:00 PM54 °FCool.25 mph37%29.88 "Hg12 mi
1:00 PM54 °FCool.23 mph39%29.88 "Hg12 mi
12:00 PM53 °FCool.26 mph37%29.88 "Hg12 mi
11:00 AM52 °FCool.25 mph36%29.88 "Hg12 mi
10:00 AM51 °FCool.24 mph38%29.86 "Hg12 mi
9:00 AM49 °FCool.26 mph36%29.84 "Hg12 mi
8:00 AM47 °FCool.20 mph42%29.84 "Hg12 mi
Weather by CustomWeather, © 2015

See weather overviewHow to use our weather pages